Voltar ao catálogo

STARLINK-35977

AtivoComunicaçõesVLEO
NORAD 66604·PAYLOAD·🇺🇸 United States

Lançado Nov 22, 2025 de Cape Canaveral Space Force Station

Loading…

Próximas Passagens (próximas 24 horas)

TLE

AtualizadoSource: CelesTrak SupGP

Época: Sep 14, 2026, 23:11 UTC

1 66604C 25270S   26257.96645833  .00062727  00000+0  22725-2 0  2574
2 66604  43.0031  66.8444 0001697 273.1375 240.3841 15.27538846    10

Acompanhe STARLINK-35977 em tempo real com AllMySat

Download on the App Store